Theta_e
361 361 359 358 358 357 360 362 360 358 360 356 359 361 362 365 367 366 364 368 370 369 371 373 373 373 370 374 374 372 376 367 367 369 370 370 367 365 358 359 367 367
361 362 361 360 360 360 362 364 363 362 362 361 358 363 366 368 364 368 365 368 369 368 371 369 372 373 372 370 374 371 372 370 369 363 367 369 370 368 359 362 359 365
362 363 361 359 357 359 354 360 364 364 362 358 359 365 364 366 365 368 368 368 366 365 371 371 371 372 370 373 373 371 367 372 367 364 369 368 369 370 368 359 360 363
363 363 359 357 357 357 356 357 362 364 361 360 355 355 361 359 365 365 369 370 369 368 367 367 368 367 369 370 372 370 369 371 369 372 372 370 370 367 365 368 364 363
363 363 362 360 359 359 358 357 356 360 359 360 356 357 363 367 364 364 366 367 370 367 368 368 369 367 370 370 371 370 367 367 369 372 372 372 371 369 365 367 370 368
364 363 364 362 361 361 358 357 358 358 359 356 357 354 357 368 362 363 364 363 363 362 362 363 365 365 366 369 370 368 367 363 365 369 368 369 365 367 363 368 368 367
362 364 364 363 361 362 360 359 359 360 359 357 359 355 356 358 362 362 364 364 361 363 362 363 366 365 365 368 368 370 370 370 370 367 367 366 369 368 364 368 370 368
363 362 363 363 360 361 361 362 360 360 361 359 358 360 358 356 360 360 364 364 362 363 363 364 367 368 364 366 367 367 366 363 366 370 367 367 367 366 368 367 370 369
363 363 363 362 360 359 358 360 359 359 361 359 355 356 361 358 360 359 363 365 364 364 364 364 367 365 364 365 365 366 365 363 362 365 367 365 365 366 365 367 366 367
364 363 361 360 359 359 358 359 358 357 359 359 356 356 358 361 362 361 364 365 363 364 364 363 366 364 363 364 365 366 365 366 367 364 364 365 365 365 364 365 363 364
361 361 360 360 359 359 358 357 358 357 356 356 355 355 357 359 363 364 364 365 361 362 363 362 362 363 363 361 363 364 366 365 365 366 365 365 365 366 368 366 365 363
361 361 361 359 359 358 358 357 357 357 355 356 357 355 357 357 361 362 363 364 362 362 364 363 363 363 364 363 362 363 364 364 365 366 363 365 365 365 365 365 364 364
362 361 360 359 360 359 358 358 356 357 357 355 358 356 355 357 358 360 363 364 364 363 362 363 363 362 364 365 364 363 363 363 361 364 363 363 363 363 363 364 364 364
362 362 362 362 361 362 362 359 356 358 360 360 360 358 354 355 357 358 361 363 364 362 363 364 365 364 365 366 366 364 363 363 363 363 362 362 361 362 362 361 363 363
365 364 364 364 363 363 362 361 359 359 361 362 361 359 356 354 358 358 360 361 364 364 364 363 365 365 365 366 365 365 363 362 363 362 362 361 360 359 360 361 360 360
367 366 364 365 364 363 363 362 361 360 358 361 361 360 359 358 356 360 360 360 363 366 366 364 364 366 361 351 354 364 364 359 362 363 361 360 360 360 359 359 359 358
367 366 366 365 364 364 363 362 361 359 358 360 362 361 360 361 359 359 359 360 361 363 365 364 364 365 349 339 342 349 362 363 361 364 364 363 361 361 359 357 358 359
367 368 367 366 365 364 363 363 361 360 359 361 361 361 363 362 359 359 360 360 359 362 363 365 364 355 338 337 339 340 351 365 362 362 363 363 361 358 359 359 358 357
368 368 367 366 365 365 365 363 362 361 360 360 360 361 363 363 361 359 360 360 360 360 362 365 365 346 334 334 336 336 339 357 363 361 360 362 362 361 358 359 359 358
369 368 367 366 366 367 366 363 362 362 360 359 359 361 363 363 362 360 360 362 361 362 362 364 365 345 330 331 332 333 335 344 367 363 361 360 363 363 361 360 360 359
370 369 368 367 367 366 366 364 362 363 361 359 356 358 362 363 362 360 360 361 361 362 363 362 364 336 327 327 328 329 331 338 365 363 360 361 363 364 365 363 363 360
370 370 369 368 367 366 365 364 363 363 362 361 358 356 361 365 365 362 361 360 360 359 358 361 361 328 326 325 326 327 330 352 364 363 360 360 362 363 364 366 366 364
369 370 369 369 367 365 364 364 363 363 363 363 360 358 358 362 363 361 363 361 359 360 359 360 367 332 323 323 324 325 331 356 362 363 361 359 360 366 367 366 365 365
370 370 370 369 368 364 364 364 365 364 363 364 361 359 356 359 362 362 363 362 359 360 360 361 364 337 318 320 322 321 338 359 362 362 362 360 361 362 364 365 366 369
371 372 370 368 368 366 363 364 364 363 362 364 361 360 359 363 364 363 363 363 361 361 359 362 361 346 315 320 319 319 337 361 362 362 361 361 361 361 363 364 366 368
371 372 371 369 369 369 368 368 367 364 362 361 360 359 359 361 363 364 364 364 362 361 362 363 361 363 328 317 317 317 326 361 364 362 360 360 361 361 360 361 363 366
Wind_Speed
11 10 10 9 8 8 7 8 8 8 7 7 7 7 7 6 5 7 7 7 7 5 4 4 3 3 3 3 3 2 4 5 3 5 4 4 4 4 4 4 2 1
13 12 10 9 8 8 7 8 8 8 7 7 6 7 6 6 7 5 7 8 8 7 5 6 4 4 4 4 3 3 2 3 3 5 4 4 4 4 4 4 4 3
14 13 13 13 12 12 13 9 8 8 8 8 6 6 7 7 7 5 7 7 8 8 7 6 6 5 5 4 5 4 4 3 4 3 6 5 4 3 4 4 4 3
15 15 14 15 13 13 11 9 9 8 8 8 8 7 8 8 7 8 6 7 7 7 7 7 7 7 5 5 5 5 4 4 3 3 3 4 4 4 4 4 3 5
17 15 13 13 12 11 11 11 12 11 10 8 9 7 7 7 8 8 7 7 7 7 7 7 7 7 6 5 5 4 5 5 4 3 2 3 4 4 4 3 3 2
15 14 13 13 12 12 12 12 12 12 12 11 10 9 8 7 9 9 9 9 9 9 9 9 8 7 8 6 5 5 5 5 5 5 3 3 4 4 5 4 4 3
18 16 16 14 15 14 13 13 12 11 12 10 9 10 9 9 9 9 10 9 10 9 10 8 7 8 7 6 6 6 5 4 4 7 6 5 3 3 4 3 4 3
18 17 16 14 16 14 14 13 12 11 11 10 11 10 10 11 10 10 9 10 10 10 9 9 8 8 8 6 7 6 6 6 5 6 7 5 4 5 4 4 3 4
17 17 16 17 18 16 17 17 15 13 11 12 11 12 10 10 11 11 9 10 9 9 9 8 9 10 8 7 7 8 8 7 7 5 6 7 6 6 6 4 4 4
17 17 20 20 19 16 18 18 16 15 12 13 12 12 12 10 11 12 10 10 10 9 10 9 8 10 9 8 8 8 8 8 6 6 7 7 7 7 7 6 6 5
19 19 20 20 19 17 20 19 17 16 14 15 14 14 14 11 10 11 10 10 11 11 10 10 10 10 10 10 9 8 9 8 8 6 6 7 7 7 7 7 7 7
19 19 20 21 20 19 20 19 17 16 16 15 15 14 13 14 12 12 11 11 11 11 11 11 10 10 10 10 11 10 9 9 8 7 7 7 8 8 7 7 7 7
19 19 18 19 18 17 16 17 17 18 17 17 15 15 15 15 15 13 11 12 12 11 11 11 11 11 10 10 10 10 10 10 10 9 9 8 7 8 9 9 8 8
18 17 17 16 16 14 14 16 16 16 15 14 14 15 16 16 16 16 13 12 13 13 11 10 11 11 10 10 10 10 10 10 10 9 10 9 9 9 9 9 9 9
14 14 15 14 15 14 14 14 14 13 13 14 13 14 15 15 15 16 14 13 13 12 12 11 11 11 10 11 11 11 10 11 11 10 9 9 9 10 10 9 9 10
14 13 13 14 15 15 14 14 13 13 14 14 14 14 12 12 12 13 15 14 13 13 12 11 10 10 12 17 15 11 11 10 9 10 10 9 9 9 10 10 11 11
13 13 13 14 15 14 14 14 14 13 12 12 12 13 12 11 10 13 15 14 14 14 14 12 11 11 17 17 17 17 12 10 9 9 10 9 9 9 9 10 10 10
14 14 14 14 14 15 15 14 13 13 12 12 12 14 11 10 12 11 12 14 14 14 15 13 12 14 18 18 18 18 15 11 9 8 9 10 10 10 9 9 9 9
14 15 14 14 14 14 14 13 13 13 13 13 13 13 12 11 11 11 11 12 13 13 14 14 12 14 18 20 19 19 18 13 9 9 9 10 10 10 9 8 8 7
15 15 15 15 13 13 13 14 14 13 14 13 12 12 12 12 12 12 10 10 11 13 12 12 12 13 18 20 20 20 19 15 9 10 9 9 9 10 9 9 9 9
16 16 15 14 14 14 13 14 14 12 13 13 13 12 12 13 13 11 11 10 10 10 11 12 10 16 18 20 20 20 19 15 11 10 9 8 8 9 9 9 8 9
17 16 15 15 15 15 15 15 15 14 13 12 11 12 11 11 11 11 11 12 11 11 11 11 11 17 20 20 21 20 20 11 11 10 9 7 7 8 8 8 8 8
17 17 16 16 16 16 16 16 15 14 12 10 11 12 12 12 12 13 10 11 13 11 11 10 7 15 20 21 21 22 15 10 13 10 9 9 7 4 5 7 8 8
16 16 16 16 16 17 17 15 15 14 14 12 12 12 14 14 13 12 11 11 13 13 13 10 9 12 20 20 21 21 18 13 12 11 10 9 8 7 6 5 7 12
15 15 16 17 16 17 17 16 16 15 14 13 13 13 12 10 11 11 11 10 12 13 15 13 11 10 18 20 21 20 17 11 11 10 10 9 9 9 8 7 6 8
15 15 15 16 16 16 14 14 13 13 15 14 14 13 11 11 11 11 12 11 11 13 12 12 13 9 16 19 21 21 21 14 10 10 11 11 10 10 9 9 9 7
Wind_Direction
179 181 183 184 186 186 182 175 180 187 190 187 183 186 192 183 200 163 176 166 180 188 180 178 178 165 175 165 158 203 160 172 188 154 180 173 200 228 190 215 211 247
181 181 181 183 183 184 189 181 181 187 188 191 189 178 187 178 191 174 172 167 172 185 180 178 173 179 190 178 165 189 206 163 220 164 179 176 201 223 217 183 214 188
182 180 181 184 186 187 193 189 185 189 187 195 197 179 175 185 177 186 169 178 169 182 179 176 177 185 189 188 168 191 187 202 194 218 156 181 192 215 246 188 191 205
182 184 184 187 188 188 191 188 188 187 194 187 196 196 181 185 178 178 174 182 168 174 180 182 183 188 187 194 180 184 194 185 201 227 184 164 186 209 218 261 208 179
184 183 184 186 188 185 187 190 193 189 197 187 188 200 184 172 172 173 178 183 176 176 178 183 183 187 182 190 186 192 195 185 193 202 225 183 175 204 228 211 254 240
183 183 182 185 185 182 187 192 191 191 193 190 185 193 189 177 171 177 182 185 186 185 188 188 184 195 183 188 185 194 206 195 186 181 203 216 210 191 224 184 195 227
183 181 183 184 187 186 188 190 191 191 189 195 179 189 189 184 176 182 183 189 187 189 191 183 184 190 187 178 189 187 211 215 196 173 188 207 219 237 221 211 180 194
182 180 183 184 188 189 190 188 192 191 184 191 183 185 186 186 182 186 189 188 191 187 190 181 181 184 187 182 182 190 201 208 226 178 184 201 202 219 239 240 189 189
179 181 182 185 188 189 192 192 192 191 186 188 191 186 186 188 181 191 190 187 194 184 188 188 177 180 188 186 186 192 195 208 205 202 185 191 205 211 217 226 236 200
180 181 184 185 188 189 192 193 192 191 188 187 192 188 185 188 181 189 188 187 190 188 186 192 181 177 186 190 189 189 196 206 213 193 198 197 201 205 212 211 220 221
182 183 185 187 188 189 191 192 190 189 189 190 191 194 187 186 183 185 190 187 189 192 188 191 191 184 184 193 193 193 196 201 211 211 198 195 204 210 208 209 211 215
182 185 186 188 189 189 189 191 190 188 188 190 191 195 185 187 185 185 190 189 191 194 192 189 191 190 189 192 195 195 194 202 203 210 214 204 202 207 217 216 215 212
183 185 186 188 188 190 189 191 192 189 189 189 191 195 192 189 189 189 190 190 190 194 195 190 190 193 192 194 197 196 194 199 206 203 209 211 211 212 213 215 220 220
187 184 185 187 186 188 190 192 194 191 187 186 188 193 196 192 190 191 190 191 189 194 196 193 190 193 194 195 199 199 193 196 206 204 205 209 212 213 218 219 215 218
183 185 185 185 185 186 192 192 196 194 185 183 185 192 197 197 191 190 192 194 191 192 195 196 192 195 196 195 197 202 202 198 199 206 208 206 210 215 217 221 226 224
182 185 186 184 185 187 191 190 191 195 190 185 186 192 194 197 193 184 190 192 190 187 193 197 196 195 197 195 193 197 203 206 198 202 210 212 207 212 217 216 223 232
182 186 187 188 186 187 189 191 190 192 192 186 185 190 195 194 196 186 188 193 194 191 193 199 200 197 192 192 192 196 199 206 204 197 204 212 213 208 216 220 220 222
182 184 188 190 188 188 188 191 190 190 191 186 184 185 192 193 198 196 188 186 193 195 196 199 202 197 184 189 190 193 198 202 208 205 200 207 216 217 214 218 223 224
181 186 189 191 192 188 186 188 192 191 191 188 186 182 184 195 198 202 195 188 188 193 199 199 204 193 181 185 189 192 197 200 208 211 208 204 212 218 220 216 219 230
182 186 189 191 190 188 185 190 194 194 192 191 188 181 184 191 197 200 204 199 193 189 195 198 203 185 182 185 188 191 195 199 210 210 213 214 209 213 219 220 216 218
181 185 189 190 189 189 187 190 194 194 193 193 194 188 184 188 195 198 202 208 206 194 191 199 202 175 179 184 187 190 194 196 210 214 216 216 217 211 212 218 219 219
180 183 186 189 189 189 189 190 192 194 194 194 195 195 189 185 191 200 199 204 208 210 209 199 200 170 178 181 185 189 190 191 205 216 227 231 218 216 213 212 217 217
182 183 184 187 189 190 191 190 189 191 194 193 197 196 190 187 191 199 200 202 206 207 215 215 189 177 176 182 182 187 182 192 202 210 222 233 250 245 229 219 217 218
182 184 185 186 187 192 192 190 188 189 192 192 196 197 198 194 194 198 202 205 205 206 207 212 209 177 179 180 183 182 181 189 198 205 217 225 237 246 255 246 231 226
181 184 189 189 189 191 190 189 190 188 189 189 195 200 202 193 191 197 202 205 206 208 205 203 215 177 185 177 184 180 185 193 194 203 211 217 220 233 239 247 246 236
184 185 188 191 188 188 189 188 185 186 188 190 194 199 200 197 191 193 198 204 206 210 206 201 208 165 184 185 178 182 186 190 193 195 208 209 214 218 225 230 238 242